Regional Weather Roundup
Issued by NWS Wilmington, NC

Home | Current Version | Previous Version | Text Only | Print | Product List | Glossary On
Versions: 1 2 3 4 5 6 7 8 9 10 11 12 13 14 15 16 17 18 19 20 21 22 23 24 25 26 27
000
ASUS42 KILM 190210
RWRILM
RWRILM
REGIONAL HOURLY WEATHER ROUNDUP
NATIONAL WEATHER SERVICE WILMINGTON NC
1000 PM EDT FRI APR 18 2014

NOTE: "FAIR" INDICATES FEW OR NO CLOUDS BELOW 12,000 FEET WITH NO
SIGNIFICANT WEATHER AND/OR OBSTRUCTIONS TO VISIBILITY.

...............WFO WILMINGTON COUNTY WARNING AREA...............

......COASTAL NC AND SC COUNTIES......

CITY           SKY/WX    TMP DP  RH WIND       PRES   REMARKS
WILMINGTON     LGT RAIN  55  52  89 NE16      30.21F FOG
SOUTHPORT      CLOUDY    54  53  95 NE12      30.17F
N MYRTLE BEACH LGT RAIN  56  54  93 NE16      30.14F
MYRTLE BEACH   LGT RAIN  55  54  94 NE18G25   30.11F FOG

......INLAND NC AND SC COUNTIES.......

CITY           SKY/WX    TMP DP  RH WIND       PRES   REMARKS
LUMBERTON      RAIN      54  51  90 NE7       30.22R FOG
ELIZABETHTOWN  HVY RAIN  54  54  99 CALM      30.23F
WHITEVILLE     RAIN      55  53  94 NE7       30.20F
FLORENCE       RAIN      55  53  93 NE15G24   30.16F FOG
DARLINGTON     CLOUDY    54  48  82 NE16      30.21S

....................REST OF NORTH CAROLINA......................

.........EASTERN NC.........

CITY           SKY/WX    TMP DP  RH WIND       PRES   REMARKS
CAPE HATTERAS  CLOUDY    50  49  96 NE15G24   30.22F
JACKSONVILLE   CLOUDY    52  48  87 NE8       30.27R
MOREHEAD CITY  LGT RAIN  53  49  86 NE13      30.22S
KENANSVILLE    RAIN      54  51  92 E5        30.26S
NEW BERN       RAIN      53  48  83 NE9       30.27R
ELIZABETH CITY CLOUDY    46  43  87 NE12      30.29F

.........CENTRAL NC.........

CITY           SKY/WX    TMP DP  RH WIND       PRES   REMARKS
RALEIGH DURHAM LGT RAIN  52  45  77 CALM      30.28R
ROCKY MOUNT    CLOUDY    56  43  61 NE7       30.28R
ROANOKE RAPIDS NOT AVBL
FAYETTEVILLE   LGT RAIN  54  50  86 N10       30.24S
HOFFMAN        RAIN      52  50  93 NE8       30.25F

.........WESTERN NC.........

CITY           SKY/WX    TMP DP  RH WIND       PRES   REMARKS
CHARLOTTE      RAIN      48  47  96 N13       30.24F FOG
GREENSBORO     LGT RAIN  52  41  66 N3        30.27S
HICKORY        NOT AVBL
BOONE          NOT AVBL
ASHEVILLE      NOT AVBL

.....................REST OF SOUTH CAROLINA.....................

.........EASTERN SC.........

CITY           SKY/WX    TMP DP  RH WIND       PRES   REMARKS
CHARLESTON     HVY RAIN  59  56  89 E20       30.05S FOG
BEAUFORT MCAS  LGT RAIN  59  57  93 E14       30.01F
HILTON HEAD    NOT AVBL

.........CENTRAL SC.........

CITY           SKY/WX    TMP DP  RH WIND       PRES   REMARKS
COLUMBIA       LGT RAIN  53  51  93 N12       30.15R FOG
ORANGEBURG     HVY RAIN  54  51  90 N9        30.10S FOG
SUMTER SHAW    HVY RAIN  53  52  95 NE21G26   30.10F FOG

.........WESTERN SC.........

CITY           SKY/WX    TMP DP  RH WIND       PRES   REMARKS
GREENVILLE     NOT AVBL
ROCK HILL      RAIN      48  47  96 NE8       30.22F FOG
ANDERSON       LGT RAIN  48  47  96 NE9G17    30.16F
CLEMSON        NOT AVBL
GREENWOOD      LGT RAIN  49  46  90 NE13G22   30.18S


...................COASTAL AND OFFSHORE REPORTS..................

................LOCAL PIERS AND NC RESERVE................


STATION/POSITION TIME  SKY/WX   TEMP    WIND        PRES    VSBY
                                AIR SEA DIR/SP/G
                 (UTC)          (F)     (DEG/KT/KT) (MB)    (MI)
JOHNY MRCER PIER 0200            54 61   20/ 19/ 20 1022.3F
NC RESRV MASNBRO 0100            56      20/  7     1022.0S
OCEAN CREST PIER 0200            54 61   50/ 18/ 23 1020.5F
SPRINGMAID  PIER 0200            57 62   30/ 22/ 29 1020.4F


................COASTAL AND OFFSHORE BUOYS................


STATION/POSITION TIME  SKY/WX   TEMP    WIND        PRES    VSBY
                                AIR SEA DIR/SP/G
                 (UTC)          (F)     (DEG/KT/KT) (MB)    (MI)
DIMNDSHOAL 41025 NOT AVBL
CAPE LOOKOUT     0100            55      20/ 19/ 23 1022.9F
ONSLOW BAY 41036 0200            58 65   30/ 21/ 27 1022.2R
WVE H/P(F/S)=  7/ 6 WND WVE H/P(F/S)=  7/ 6 SWL H/P/D(F/S/D)=  3/110/10

5 WRITEBCH 41038 0100            55 59   40/ 16/ 21 1023.0R
MASONBORO  41110 0200               60                N/A
WVE H/P(F/S)=  5/ 6 WND WVE H/P(F/S)=  5/ 6 SWL H/P/D(F/S/D)=  2/100/11

WILM HARBR 41108 0200               60                N/A
WVE H/P(F/S)=  5/ 4 WND WVE H/P(F/S)=  5/ 4

27WRITEBCH 41037 0100            54      50/ 27/ 33 1021.7R
FRYING PAN 41013 0200            60 65   40/ 27/ 31 1019.2F
WVE H/P(F/S)=  8/ 7 WND WVE H/P(F/S)=  8/ 7 SWL H/P/D(F/S/D)=  3/110/ 9

SUNST NRSH 41024 0100            56      40/ 16/ 17 1020.4F
CAPRS NRSH 41029 NOT AVBL
EDISTO     41004 NOT AVBL


..........OFFSHORE BUOYS BEYOND 100 NM OFFSHORE...........
.....IN A TRIANGLE---HAT TO BERMUDA TO BAHAMAS TO HAT.....


STATION/POSITION TIME  SKY/WX   TEMP    WIND        PRES    VSBY
                                AIR SEA DIR/SP/G
                 (UTC)          (F)     (DEG/KT/KT) (MB)    (MI)
150E HAT   41001 NOT AVBL
W BERMUDA  41048 0057            70 69  150/ 12/ 14 1023.0
WVE H/P(F/S)=  9/ 9 WND WVE H/P(F/S)=  3/ 5 SWL H/P/D(F/S/D)=  8/ 20/ 9

ATLANTIC S 41049 0108            75 75  110/ 17/ 19 1025.0R
WVE H/P(F/S)=  8/ 9 WND WVE H/P(F/S)=  7/ 8 SWL H/P/D(F/S/D)=  5/ 90/ 9

E BAHAMAS  41046 NOT AVBL
NE BAHAMAS 41047 0105            76 76  130/ 16/ 17 1021.5
WVE H/P(F/S)=  8/10 WND WVE H/P(F/S)=  5/ 5 SWL H/P/D(F/S/D)=  7/ 40/10

120E CANVRL41010 0200            76 76  140/ 19/ 23 1016.1F
WVE H/P(F/S)=  7/10 WND WVE H/P(F/S)=  5/ 7 SWL H/P/D(F/S/D)=  5/ 40/10


END



USA.gov is the U.S. government's official web portal to all federal, state and local government web resources and services.